Location: Katowice
(50.2611°N, 19.0242°E)
Time: 00:15:59
(UTC+02:00)

A-11 Canister half - Pass Details

Date: 27 July 2019
Orbit: 1526 x 1683 km, 47.3° (Epoch: 21 August)

Event Time Altitude Azimuth Distance (km) Brightness Sun altitude
Rises 22:01:59 0° 260° (W) 4,920 12.1 -11.3°
Reaches altitude 10° 22:05:10 10° 259° (W) 3,920 11.5 -11.6°
Maximum altitude 22:15:11 76° 176° (S) 1,680 9.1 -12.6°
Drops below altitude 10° 22:24:53 10° 93° (E) 3,806 10.7 -13.5°
Sets 22:27:56 0° 92° (E) 4,771 11.2 -13.8°
